sat.trackr.live / text

‹ back to catalog

ONEWEB-0139

NORAD 47285 · 2020-100AD

PAYLOAD ACTIVE UNKNOWN

§ Identity

Operator
Country
UK
Launch date
2020-12-18
Launch site
VOSTO
Launch vehicle
Mass (kg)
RCS (m²)

Purposes: comms

External: N2YO · Heavens-Above · Gunter

§ Orbital elements

Epoch: 2026-09-11T22:13:17.004000Z

Period
109.72 min
Inclination
87.8991°
Eccentricity
0.0001843
Mean motion
13.12441149 rev/d
Perigee alt
1,212.3 km
Apogee alt
1,215.1 km
Semi-major
7,591.9 km
B*
-2.1673e-4
RAAN
333.4332°
Arg perigee
99.0345°
Mean anomaly
261.0993°
Rev number
27,610

§ Raw data

ONEWEB-01391 47285U 20100AD  26254.92589125 -.00000065  00000+0 -21673-3 0  99932 47285  87.8991 333.4332 0001843  99.0345 261.0993 13.12441149276103

JSON: /api/v1/satellites/47285 · /tle

For live sub-satellite position, see the globe view (requires WebGL).

§ Visibility from observer

Set your observer location to see the next 7 days of passes ≥ 10°. The values pass through the URL so the page stays shareable.

No JS? Fill the form by hand. The geolocation button needs JavaScript.